This is the latest recevied weather packets stored in our database for station/object N9EA. If no packets are shown the sender has not sent any weather packets the latest 10 day(s).
| Time | Temp. | Humidity | Pressure | Rain* | Wind** | Luminosity | Snow |
|---|---|---|---|---|---|---|---|
| 1777745219 | 15° C | 33% | 1019 hPa | 0 mm | - | 444 W/m² | - |
| 1777744916 | 15° C | 32% | 1018.9 hPa | 0 mm | - | 429 W/m² | - |
| 1777744615 | 13.89° C | 34% | 1019 hPa | 0 mm | - | 867 W/m² | - |
| 1777744311 | 13.89° C | 33% | 1019 hPa | 0 mm | - | 228 W/m² | - |
| 1777744008 | 13.89° C | 34% | 1018.9 hPa | 0 mm | - | 266 W/m² | - |
| 1777743704 | 15.56° C | 32% | 1019.3 hPa | 0 mm | - | 772 W/m² | - |
| 1777743402 | 15.56° C | 35% | 1019.3 hPa | 0 mm | - | 908 W/m² | - |
| 1777743100 | 15° C | 31% | 1019.4 hPa | 0 mm | - | 909 W/m² | - |
| 1777742797 | 15° C | 34% | 1019.2 hPa | 0 mm | - | 713 W/m² | - |
| 1777742493 | 14.44° C | 33% | 1019.4 hPa | 0 mm | - | 803 W/m² | - |
| 1777742188 | 13.89° C | 32% | 1019.3 hPa | 0 mm | - | 768 W/m² | - |
| 1777741880 | 13.89° C | 34% | 1019.4 hPa | 0 mm | - | 337 W/m² | - |
| 1777741577 | 13.89° C | 33% | 1019.4 hPa | 0 mm | - | 633 W/m² | - |
| 1777741275 | 14.44° C | 34% | 1019.4 hPa | 0 mm | - | 926 W/m² | - |
| 1777740971 | 14.44° C | 36% | 1019.4 hPa | 0 mm | - | 904 W/m² | - |
| 1777740668 | 14.44° C | 33% | 1019.5 hPa | 0 mm | - | 860 W/m² | - |
| 1777740364 | 13.89° C | 33% | 1019.4 hPa | 0 mm | - | 796 W/m² | - |
| 1777740061 | 12.78° C | 36% | 1019.7 hPa | 0 mm | - | 768 W/m² | - |
| 1777739757 | 12.22° C | 35% | 1019.7 hPa | 0 mm | - | 140 W/m² | - |
| 1777739454 | 12.78° C | 36% | 1019.6 hPa | 0 mm | - | 145 W/m² | - |
| 1777739151 | 13.33° C | 37% | 1019.7 hPa | 0 mm | - | 195 W/m² | - |
| 1777738848 | 13.89° C | 36% | 1019.6 hPa | 0 mm | - | 243 W/m² | - |
| 1777738545 | 13.33° C | 37% | 1019.8 hPa | 0 mm | - | 300 W/m² | - |
| 1777738242 | 13.33° C | 36% | 1019.7 hPa | 0 mm | - | 272 W/m² | - |
| 1777737940 | 12.78° C | 39% | 1019.8 hPa | 0 mm | - | 677 W/m² | - |
* Rain latest hour (hover to see other rain measurements)
** Current wind speed in m/s (hover to see current wind gust speed)